Andover, NJ

7:34 PM EST on December 15, 2019 (GMT -0500)
Andover

Weather History for K12N - September, 2019

Change the Weather History Date:

Saturday, September 14, 2019

  Actual Average (KFWN) Record (KFWN)
Temperature  
Mean Temperature 66 °F -  
Max Temperature 73 °F 76 °F 88 °F (1957)
Min Temperature 60 °F 48 °F 34 °F (1967)
Growing Degree Days 16 (Base 50)    
Moisture  
Dew Point 60 °F    
Average Humidity 81    
Maximum Humidity 100    
Minimum Humidity 67    
Precipitation  
Precipitation 0.04 in - - ()
Sea Level Pressure  
Sea Level Pressure 30.26 in    
Wind  
Wind Speed 3 mph (SSW)    
Max Wind Speed 8 mph    
Max Gust Speed -    
Averages and records for this station are not official NWS values.
T = Trace of Precipitation, MM = Missing Value Source: NWS Daily Summary

Daily Weather History Graph

Daily Weather History Graph

Search for Another Location

Airport or City:

Astronomy

Sep. 14, 2019 Rise Set
Actual Time 6:38 AM EDT 7:10 PM EDT
Civil Twilight 6:10 AM EDT 7:37 PM EDT
Nautical Twilight 5:37 AM EDT 8:10 PM EDT
Astronomical Twilight 5:04 AM EDT 8:43 PM EDT
Moon 7:50 PM EDT (9/14) 6:49 AM EDT (9/14)
Length of Visible Light 13h 27m
Length of Day
12h 31m
Full, 100% of the Moon is Illuminated
Sep 14
Full
Sep 21
Last Quarter
Sep 28
New
Oct 5
First Quarter
Oct 13
Full

Hourly Weather History & Observations

Time (EDT) Temp. Dew Point Humidity Pressure Visibility Wind Dir Wind Speed Gust Speed Precip Events Conditions
12:54 AM 61.0 °F 50.0 °F 67% 30.38 in - SSW 3.5 mph - N/A   Unknown
2:54 AM 60.1 °F 53.1 °F 78% 30.35 in - Calm Calm - N/A   Unknown
3:54 AM 61.0 °F 53.1 °F 75% 30.33 in - South 3.5 mph - N/A   Unknown
5:54 AM 61.0 °F 55.9 °F 83% 30.32 in - Calm Calm - N/A   Unknown
6:54 AM 63.0 °F 55.0 °F 75% 30.32 in - Calm Calm - N/A   Unknown
7:54 AM 64.0 °F 55.9 °F 75% 30.32 in - Calm Calm - N/A   Unknown
8:54 AM 64.0 °F 55.9 °F 75% 30.32 in - Variable 4.6 mph - N/A   Unknown
9:54 AM 66.0 °F 57.0 °F 73% 30.31 in - Variable 3.5 mph - N/A   Unknown
10:54 AM 66.0 °F 57.9 °F 75% 30.30 in - South 6.9 mph - N/A   Unknown
11:54 AM 68.0 °F 60.1 °F 76% 30.28 in - SSW 8.1 mph - N/A   Unknown
12:54 PM 69.1 °F 62.1 °F 78% 30.26 in - SSW 5.8 mph - N/A   Unknown
1:54 PM 71.1 °F 62.1 °F 73% 30.23 in - SSW 6.9 mph - N/A   Unknown
2:54 PM 70.0 °F 62.1 °F 76% 30.21 in - SSW 5.8 mph - N/A   Unknown
3:54 PM 71.1 °F 63.0 °F 75% 30.19 in - Variable 5.8 mph - N/A   Unknown
4:54 PM 71.1 °F 64.9 °F 81% 30.17 in - Calm Calm - N/A   Unknown
5:54 PM 69.1 °F 64.9 °F 87% 30.18 in - Calm Calm - N/A   Unknown
6:54 PM 68.0 °F 66.9 °F 96% 30.18 in - Calm Calm - 0.03 in   Unknown
7:54 PM 66.9 °F 66.0 °F 97% 30.18 in - Calm Calm - 0.01 in   Unknown
8:54 PM 66.9 °F 66.0 °F 97% 30.19 in - Calm Calm - N/A   Unknown
9:54 PM 66.0 °F 64.9 °F 96% 30.19 in - Calm Calm - N/A   Unknown
11:54 PM 64.0 °F 64.0 °F 100% 30.18 in - Calm Calm - N/A   Unknown